[[{"header":{"parameterUnit":"m.s-1","parameterCategory":1,"la1":30.2991,"la2":30.254,"lo1":-89.0895,"lo2":-89.0444,"dy":0.0017,"dx":0.0017,"nx":28,"ny":28,"refTime":"2023-11-03T21:00:00:Z","depth":0,"parameterNumber":2,"parameterNumberName":"U-component_of_WINDS"},"data":[0,0,0,0,0,0,0,0,0,0,0,0,0,0,0,0,0,0,0,0,0,0,0,0,0,0,0,0,0,0,0,0,0,0,0,0,0,0,0,0,0,0,0,0,0,0,0,0,0,0,0,0,0,0,0,0,0,0,-1.5998,-1.5997,0,-1.5905,-1.5904,-1.5903,-1.5801,-1.58,-1.5798,-1.5797,-1.5702,-1.5701,-1.57,0,0,0,0,0,0,0,0,0,0,0,0,0,-1.6088,-1.6087,-1.5998,-1.5997,-1.5996,-1.5906,-1.5904,-1.5903,-1.5801,-1.58,-1.5798,-1.5796,-1.5703,-1.5701,-1.57,0,0,0,0,0,0,0,0,0,0,0,0,0,-1.6028,-1.6087,-1.5999,-1.5934,-1.5928,-1.5906,-1.5904,-1.5903,-1.5802,-1.58,-1.5797,-1.5795,-1.5703,-1.5702,-1.57,-1.5734,0,0,-1.5695,-1.5694,0,0,0,0,0,0,0,0,-1.6031,-1.6025,-1.5945,-1.5939,-1.5931,-1.5863,-1.5901,-1.5846,-1.5802,-1.585,-1.5797,-1.5794,-1.5758,-1.5751,-1.5739,-1.5729,-1.5725,-1.5695,-1.5694,-1.5693,-1.5692,0,0,0,0,0,0,0,-1.6036,-1.6028,-1.5962,-1.5944,-1.5936,-1.591,-1.5899,-1.589,-1.5817,-1.5845,-1.5838,-1.5828,-1.5753,-1.5741,-1.5736,-1.5724,-1.5695,-1.5693,-1.5692,-1.5691,-1.5739,-1.5741,0,0,0,0,0,0,-1.605,-1.6032,-1.5964,-1.5959,-1.5977,-1.5911,-1.5898,-1.5887,-1.5817,-1.5804,-1.583,-1.5824,-1.5745,-1.5738,-1.5732,-1.5768,-1.5693,-1.5691,-1.569,-1.5737,-1.5739,-1.5742,0,0,0,0,0,0,-1.6052,-1.6045,-1.5968,-1.5993,-1.5982,-1.5912,-1.59,-1.5886,-1.5873,-1.5805,-1.5792,-1.5831,-1.5743,-1.5734,-1.5734,-1.5763,-1.569,-1.5689,-1.5734,-1.5737,-1.5741,-1.5841,0,0,0,0,0,0,-1.6055,-1.6046,-1.6058,-1.5994,-1.5981,-1.5972,-1.5901,-1.5886,-1.5871,-1.5861,-1.5802,-1.579,-1.574,-1.5737,-1.5733,-1.576,-1.5688,-1.5731,-1.5736,-1.574,-1.5834,-1.5847,-1.5858,0,0,0,0,0,-1.6059,-1.609,-1.6059,-1.6052,-1.5994,-1.5974,-1.5966,-1.5908,-1.5873,-1.5885,-1.5842,-1.5792,-1.5761,-1.5738,-1.5732,-1.5759,-1.5729,-1.5734,-1.5739,-1.5829,-1.5845,-1.5857,0,0,0,0,0,0,-1.6159,-1.608,-1.6045,-1.6057,-1.6023,-1.5957,-1.597,-1.5926,-1.5901,-1.5894,-1.5822,-1.5809,-1.5818,-1.5788,-1.5765,-1.5789,-1.5738,-1.5742,-1.5808,-1.5822,-1.5834,-1.5842,-1.5686,0,0,0,0,0,-1.6182,-1.6172,-1.6104,-1.6121,-1.6105,-1.6041,-1.603,-1.5988,-1.595,-1.5935,-1.5891,-1.5857,-1.5839,-1.5828,-1.5808,-1.5829,-1.5815,-1.5845,-1.5856,-1.5866,-1.5871,-1.5881,-1.5894,-1.5759,-1.5759,-1.5759,0,0,-1.6231,-1.6186,-1.6184,-1.614,-1.6108,-1.61,-1.603,-1.6023,-1.6017,-1.5934,-1.5932,-1.5898,-1.5855,-1.5866,-1.5868,-1.5841,-1.5905,-1.5873,-1.5881,-1.5881,-1.5888,-1.5901,-1.5912,-1.5762,-1.5762,-1.5761,0,0,-1.6315,-1.628,-1.6291,-1.6261,-1.6214,-1.6171,-1.6174,-1.6114,-1.6089,-1.6085,-1.6024,-1.6014,-1.5985,-1.5957,-1.5939,-1.6013,-1.5967,-1.6008,-1.607,-1.608,-1.6091,-1.61,-1.6128,-1.6139,-1.6013,-1.6013,-1.6013,0,-1.6381,-1.6366,-1.6302,-1.63,-1.6282,-1.6207,-1.6217,-1.6191,-1.6141,-1.6131,-1.6101,-1.6063,-1.6028,-1.6032,-1.6051,-1.6038,-1.6039,-1.6015,-1.6095,-1.6103,-1.6111,-1.6137,-1.6147,-1.6019,-1.6018,-1.6017,-1.6017,0,-1.645,-1.644,-1.6455,-1.6408,-1.6392,-1.6396,-1.6334,-1.6325,-1.6284,-1.6245,-1.6243,-1.6198,-1.6168,-1.6165,-1.6125,-1.6164,-1.6149,-1.6108,-1.6055,-1.613,-1.6153,-1.6163,-1.6026,-1.6024,-1.6023,-1.6021,0,0,-1.6596,-1.6514,-1.652,-1.6498,-1.6442,-1.6433,-1.6434,-1.6405,-1.64,-1.6367,-1.6367,-1.6344,-1.6306,-1.6286,-1.6242,-1.6251,-1.6314,-1.6208,-1.6206,-1.6231,-1.6356,-1.6388,-1.6401,-1.6283,-1.6284,-1.6286,-1.636,0,-1.6671,-1.6669,-1.6611,-1.6625,-1.6616,-1.6544,-1.6545,-1.6511,-1.6474,-1.6461,-1.6419,-1.6405,-1.6355,-1.6342,-1.6348,-1.6305,-1.6339,-1.6299,-1.6283,-1.6284,-1.6298,-1.6412,-1.6447,-1.6519,-1.6368,-1.637,-1.6371,0,-1.6759,-1.6732,-1.6745,-1.6689,-1.6683,-1.6685,-1.6654,-1.6642,-1.6602,-1.6574,-1.6552,-1.6502,-1.65,-1.6449,-1.6446,-1.642,-1.641,-1.6388,-1.639,-1.6387,-1.6333,-1.6415,-1.654,-1.6552,-1.6384,-1.6383,-1.6382,0,-1.6866,-1.6833,-1.6837,-1.682,-1.6754,-1.6757,-1.673,-1.6687,-1.6673,-1.6646,-1.6637,-1.661,-1.6595,-1.6576,-1.652,-1.6488,-1.6524,-1.6469,-1.6502,-1.6504,-1.6514,-1.6515,-1.6642,-1.6505,-1.6505,-1.6505,-1.6505,0,-1.6957,-1.6968,-1.6884,-1.6887,-1.6897,-1.6831,-1.6844,-1.6809,-1.6772,-1.6767,-1.6703,-1.67,-1.6626,-1.6615,-1.6571,-1.6576,-1.6569,-1.6548,-1.6536,-1.6555,-1.6558,-1.6548,-1.6543,-1.6508,-1.6507,-1.6506,-1.6506,0,-1.7079,-1.7023,-1.7022,-1.696,-1.6944,-1.6955,-1.6901,-1.6902,-1.686,-1.6855,-1.685,-1.6786,-1.6769,-1.6711,-1.6681,-1.6651,-1.6671,-1.6647,-1.6685,-1.6678,-1.6715,-1.6713,-1.6842,-1.6856,-1.671,-1.6711,-1.6712,0,-1.7142,-1.7149,-1.7087,-1.7079,-1.7054,-1.7042,-1.7028,-1.6963,-1.6951,-1.6906,-1.6912,-1.689,-1.687,-1.6847,-1.6798,-1.6774,-1.6751,-1.6797,-1.6747,-1.6765,-1.6754,-1.6755,-1.6756,-1.6809,-1.6811,-1.6813,-1.6814,0,-1.726,-1.7231,-1.7213,-1.7186,-1.7171,-1.7146,-1.7117,-1.7115,-1.7042,-1.7032,-1.7014,-1.6998,-1.6967,-1.6947,-1.6915,-1.6887,-1.684,-1.683,-1.6837,-1.6857,-1.6879,-1.6869,-1.6716,-1.6828,-1.6826,-1.6825,-1.6825,-1.6824,-1.7355,-1.7358,-1.7315,-1.7298,-1.7269,-1.7244,-1.7242,-1.72,-1.7184,-1.7154,-1.7116,-1.7104,-1.7064,-1.7016,-1.6992,-1.6982,-1.6955,-1.6965,-1.6967,-1.6971,-1.6981,-1.6879,-1.6975,-1.6975,-1.6974,-1.6974,-1.6974,0,-1.7471,-1.744,-1.7424,-1.7386,-1.7372,-1.7327,-1.7294,-1.7286,-1.7275,-1.7242,-1.7223,-1.7203,-1.7183,-1.7133,-1.7108,-1.711,-1.7088,-1.7106,-1.7106,-1.7101,-1.7005,-1.7002,-1.7125,-1.7125,-1.7125,-1.7125,-1.7124,-1.7124,-1.7529,-1.7533,-1.7501,-1.749,-1.7458,-1.7446,-1.7431,-1.7408,-1.7381,-1.7362,-1.7345,-1.7312,-1.7272,-1.7244,-1.7224,-1.721,-1.7205,-1.7231,-1.721,-1.7122,-1.7107,-1.7094,-1.7091,-1.723,-1.723,-1.7306,-1.7307,-1.7307]},{"header":{"parameterUnit":"m.s-1","parameterCategory":1,"la1":30.2991,"la2":30.254,"lo1":-89.0895,"lo2":-89.0444,"dy":0.0017,"dx":0.0017,"nx":28,"ny":28,"refTime":"2023-11-03T21:00:00:Z","depth":0,"parameterNumber":3,"parameterNumberName":"V-component_of_WINDS"},"data":[0,0,0,0,0,0,0,0,0,0,0,0,0,0,0,0,0,0,0,0,0,0,0,0,0,0,0,0,0,0,0,0,0,0,0,0,0,0,0,0,0,0,0,0,0,0,0,0,0,0,0,0,0,0,0,0,0,0,-0.5602,-0.5602,0,-0.5621,-0.5621,-0.5621,-0.5614,-0.5613,-0.5613,-0.5612,-0.5632,-0.5633,-0.5634,0,0,0,0,0,0,0,0,0,0,0,0,0,-0.5562,-0.5562,-0.5602,-0.5602,-0.5603,-0.5621,-0.5621,-0.5621,-0.5614,-0.5613,-0.5613,-0.5612,-0.5632,-0.5633,-0.5634,0,0,0,0,0,0,0,0,0,0,0,0,0,-0.558,-0.5563,-0.5602,-0.5601,-0.5601,-0.5621,-0.5621,-0.5621,-0.5614,-0.5613,-0.5612,-0.5612,-0.5631,-0.5633,-0.5634,-0.5656,0,0,-0.5639,-0.5639,0,0,0,0,0,0,0,0,-0.5579,-0.5581,-0.5601,-0.5601,-0.5601,-0.5614,-0.5614,-0.5633,-0.5614,-0.5609,-0.5612,-0.5611,-0.5627,-0.5628,-0.5633,-0.5657,-0.5658,-0.5639,-0.564,-0.564,-0.5641,0,0,0,0,0,0,0,-0.5577,-0.558,-0.561,-0.5601,-0.5602,-0.56,-0.5602,-0.5617,-0.5621,-0.5609,-0.5609,-0.5611,-0.5627,-0.5632,-0.5634,-0.5658,-0.5639,-0.564,-0.5641,-0.5641,-0.5702,-0.5703,0,0,0,0,0,0,-0.5576,-0.5579,-0.5609,-0.561,-0.5588,-0.5601,-0.5603,-0.5611,-0.5621,-0.5622,-0.5612,-0.5611,-0.563,-0.5632,-0.5635,-0.5662,-0.564,-0.5641,-0.5642,-0.5701,-0.5702,-0.5703,0,0,0,0,0,0,-0.5575,-0.5579,-0.5608,-0.5595,-0.5598,-0.5603,-0.5611,-0.5611,-0.5617,-0.5623,-0.5624,-0.5616,-0.563,-0.5633,-0.5651,-0.5663,-0.5642,-0.5643,-0.57,-0.5701,-0.5702,-0.5717,0,0,0,0,0,0,-0.5574,-0.5578,-0.5587,-0.5595,-0.5599,-0.5624,-0.5612,-0.5612,-0.5619,-0.5618,-0.5628,-0.5629,-0.5629,-0.5649,-0.5652,-0.5664,-0.5644,-0.5699,-0.5701,-0.5702,-0.5715,-0.5718,-0.5721,0,0,0,0,0,-0.5572,-0.559,-0.5587,-0.5591,-0.5609,-0.5625,-0.5627,-0.5628,-0.562,-0.5629,-0.5633,-0.5628,-0.566,-0.5651,-0.5655,-0.5667,-0.5699,-0.57,-0.5702,-0.5714,-0.5718,-0.5721,0,0,0,0,0,0,-0.5583,-0.5591,-0.5588,-0.5608,-0.5616,-0.5624,-0.5634,-0.5631,-0.5641,-0.564,-0.564,-0.5642,-0.5662,-0.5666,-0.5655,-0.5689,-0.5678,-0.5681,-0.5686,-0.569,-0.5692,-0.5692,-0.5646,0,0,0,0,0,-0.5588,-0.5599,-0.5606,-0.5623,-0.5627,-0.563,-0.5637,-0.5636,-0.5644,-0.5648,-0.5653,-0.5661,-0.5673,-0.5682,-0.5693,-0.5715,-0.5718,-0.5726,-0.5728,-0.5731,-0.5734,-0.5747,-0.5751,-0.5709,-0.5709,-0.5709,0,0,-0.5598,-0.5603,-0.5611,-0.5625,-0.5631,-0.5644,-0.5633,-0.5647,-0.5656,-0.565,-0.5668,-0.5672,-0.5681,-0.5702,-0.5712,-0.5707,-0.5746,-0.5733,-0.5735,-0.5736,-0.5749,-0.5753,-0.5757,-0.571,-0.571,-0.5709,0,0,-0.5623,-0.5627,-0.5643,-0.5649,-0.5658,-0.566,-0.5664,-0.5672,-0.5675,-0.5692,-0.5688,-0.57,-0.572,-0.5727,-0.5734,-0.5761,-0.5758,-0.5765,-0.578,-0.5793,-0.5797,-0.58,-0.5811,-0.5815,-0.5767,-0.5767,-0.5767,0,-0.5634,-0.5653,-0.5652,-0.5666,-0.5673,-0.5667,-0.5684,-0.569,-0.5702,-0.5707,-0.5701,-0.5727,-0.5733,-0.5756,-0.5763,-0.5767,-0.5773,-0.5765,-0.5796,-0.5799,-0.5802,-0.5813,-0.5817,-0.5768,-0.5768,-0.5768,-0.5768,0,-0.5668,-0.5681,-0.5692,-0.5705,-0.5713,-0.5728,-0.5729,-0.5738,-0.5736,-0.5739,-0.5758,-0.5764,-0.5777,-0.5782,-0.5781,-0.5806,-0.5802,-0.5796,-0.5785,-0.5807,-0.5818,-0.5822,-0.5769,-0.5769,-0.5769,-0.5769,0,0,-0.5701,-0.5712,-0.5717,-0.5723,-0.5732,-0.5743,-0.5757,-0.577,-0.5778,-0.5786,-0.58,-0.5817,-0.5812,-0.5819,-0.5818,-0.5829,-0.5853,-0.5822,-0.5822,-0.5829,-0.5882,-0.5889,-0.5893,-0.585,-0.5851,-0.5851,-0.5882,0,-0.5729,-0.5755,-0.5755,-0.578,-0.5793,-0.5787,-0.58,-0.5808,-0.581,-0.5822,-0.5825,-0.5838,-0.5828,-0.5833,-0.5843,-0.5848,-0.5864,-0.5845,-0.5864,-0.5865,-0.5864,-0.5899,-0.5905,-0.5934,-0.5886,-0.5887,-0.5887,0,-0.5764,-0.5774,-0.5801,-0.5809,-0.5815,-0.5827,-0.5839,-0.5849,-0.5857,-0.5859,-0.5867,-0.5864,-0.588,-0.5867,-0.589,-0.5877,-0.5885,-0.5888,-0.5889,-0.5893,-0.5879,-0.5905,-0.5943,-0.5949,-0.5893,-0.5893,-0.5892,0,-0.5789,-0.5809,-0.5827,-0.5832,-0.5842,-0.5851,-0.5855,-0.5863,-0.5871,-0.5881,-0.5886,-0.5898,-0.5905,-0.5914,-0.5915,-0.5905,-0.5939,-0.5926,-0.5942,-0.5942,-0.5951,-0.5951,-0.5993,-0.5952,-0.5952,-0.5952,-0.5951,0,-0.5821,-0.5838,-0.5839,-0.5851,-0.587,-0.5868,-0.5887,-0.5891,-0.5898,-0.591,-0.5905,-0.5917,-0.5917,-0.5929,-0.593,-0.595,-0.5952,-0.5955,-0.5955,-0.5957,-0.5957,-0.5963,-0.5962,-0.5953,-0.5952,-0.5952,-0.5952,0,-0.5853,-0.5853,-0.5874,-0.5881,-0.5883,-0.5897,-0.5904,-0.5915,-0.5917,-0.5933,-0.5937,-0.594,-0.5954,-0.5956,-0.5972,-0.5973,-0.5997,-0.5994,-0.5995,-0.5995,-0.6012,-0.6011,-0.6062,-0.6069,-0.6021,-0.6021,-0.6022,0,-0.5874,-0.5887,-0.5896,-0.5904,-0.5909,-0.5922,-0.593,-0.5929,-0.5937,-0.5948,-0.5958,-0.5972,-0.5984,-0.6007,-0.6011,-0.6024,-0.6023,-0.604,-0.6025,-0.6026,-0.6026,-0.6026,-0.6028,-0.6043,-0.6044,-0.6044,-0.6045,0,-0.5913,-0.5913,-0.5924,-0.5937,-0.5946,-0.5956,-0.5964,-0.5971,-0.5971,-0.5981,-0.5996,-0.6005,-0.6022,-0.6036,-0.6049,-0.6054,-0.605,-0.6049,-0.6054,-0.6056,-0.6057,-0.6059,-0.6005,-0.6048,-0.6048,-0.6048,-0.6047,-0.6047,-0.5942,-0.5954,-0.5962,-0.5975,-0.5981,-0.599,-0.6001,-0.6004,-0.6017,-0.6031,-0.6029,-0.6046,-0.6054,-0.607,-0.6076,-0.609,-0.6084,-0.6091,-0.6093,-0.6095,-0.6098,-0.6053,-0.6092,-0.6091,-0.6091,-0.6091,-0.6091,0,-0.5982,-0.5987,-0.5999,-0.6012,-0.6023,-0.6016,-0.6026,-0.6036,-0.605,-0.6058,-0.6069,-0.6087,-0.6101,-0.6105,-0.6119,-0.6129,-0.6128,-0.6133,-0.6134,-0.6135,-0.6101,-0.6096,-0.6134,-0.6134,-0.6134,-0.6134,-0.6134,-0.6134,-0.6005,-0.6025,-0.6026,-0.6049,-0.6054,-0.607,-0.6077,-0.6084,-0.6091,-0.6111,-0.6122,-0.6125,-0.6132,-0.6146,-0.6159,-0.616,-0.6166,-0.6173,-0.6173,-0.6141,-0.6137,-0.6133,-0.6129,-0.6173,-0.6173,-0.6207,-0.6207,-0.6207]}]]